星链-35834(STARLINK-35834)

导读

STARLINK-35834是美国太空探索技术公司(SpaceX)星链互联网星座的成员,于2025年11月21日发射升空。星链项目旨在构建全球卫星互联网,该卫星承担为偏远地区、海洋等场景提供高速低延迟互联网接入服务的任务,进一步拓展了星链星座的全球覆盖与服务能力,助力SpaceX完成星座组网部署。

Basic Information
目录编号:
66570
目录名称:
STARLINK-35834
国际标识:
2025-268P
轨道中心:
EARTH
卫星名称:
星链-35834
卫星全名:
星链-35834(STARLINK-35834)
卫星状态:
在轨 (已飞行287 天)
发射日期:
2025-11-21 UTC
国别 :
美国 (US)
星等 :
--
Orbit Information
数据来源 国际轨道数据 AOE轨道数据
星历时间 2026-09-04T12:30:47+0800
4小时前
查看轨道信息
2026-08-30T15:00:00+0800
5天前
查看轨道信息
半长轴 6861.111km 6861.015km
偏心率 0.0001976 0.0004428
轨道倾角 43.005° 42.983°
近地点辐角 279.625° 299.580°
升交点赤经 59.443° 87.053°
平近点角 80.438° 102.442°
近地点 481.618km 479.839km
远地点 484.33km 485.917km
周期 94.265分钟 94.263分钟
每日圈数 15.276053 15.276373
Detailed Information
固有亮度:
5
最大亮度:
2.5
卫星平台:
Starlink V1.0
覆盖范围:
全球
运营商:
太空探索技术公司
运营商所在国:
美国
制造商(研发单位):
太空探索技术公司
制造商所在国:
美国
使用方式:
暂无
Satellite Introduction
Starlink 计划是 SpaceX 推出的全球卫星互联网项目,通过发射低轨道卫星,为全球尤其是偏远地区提供高速、低延迟的互联网服务。自 2019 年起,Starlink 已部署数千颗卫星,旨在缩小全球数字鸿沟,推动互联网普及。该项目还为军事、航空等行业提供通信支持,带来广泛经济效益。
2D Orbit Map
3D Orbit Map
Orbit Altitude Analysis Chart
Orbit Inclination Analysis Chart
Orbit Comprehensive Analysis Chart
View Comprehensive Chart
Conjunction Data List
Event ID Objects TCA Miss Dist (km) Collision Risk Probability Collision Risk Index (CRI) Action
CDM_260905-173605-735306-657021
2026-09-05T
17:36:19+0000
0.782 km
远距离
3.963999E-5 中风险 0.67
CDM_260905-082905-970206-657021
2026-09-05T
08:29:14+0000
0.780 km
远距离
3.367026E-5 中风险 0.66
CDM_260827-185806-319906-657021
2026-08-27T
18:58:03+0000
0.859 km
远距离
2.909546E-5 中风险 0.64
CDM_260905-075205-482806-657021
2026-09-05T
07:52:51+0000
1.236 km
极远距离
9.885023E-6 低风险 0.55
CDM_260905-075205-483806-657021
2026-09-05T
07:52:16+0000
1.296 km
极远距离
8.342175E-6 低风险 0.53
CDM_260906-052205-735306-657021
2026-09-06T
05:22:28+0000
1.299 km
极远距离
7.053486E-6 低风险 0.52
CDM_260905-012505-970206-657021
2026-09-05T
01:25:33+0000
1.261 km
极远距离
6.572441E-6 低风险 0.51
CDM_260906-034805-735306-657021
2026-09-06T
03:48:18+0000
1.423 km
极远距离
5.206658E-6 低风险 0.49
CDM_260905-160205-735306-657021
2026-09-05T
16:02:10+0000
1.474 km
极远距离
4.632169E-6 低风险 0.48
CDM_260905-092705-482806-657021
2026-09-05T
09:27:00+0000
1.629 km
极远距离
3.96986E-6 低风险 0.47